Rome, NY

12:19 AM EST on February 07, 2016 (GMT -0500)
Griffiss

Weather History for KRME - January, 2013

Change the Weather History Date:

Sunday, January 27, 2013

  Actual Average Record
Temperature  
Mean Temperature 6 °F -  
Max Temperature 19 °F 28 °F 42 °F (2012)
Min Temperature -6 °F 8 °F -15 °F (1982)
Degree Days  
Heating Degree Days 58    
Moisture  
Dew Point 0 °F    
Average Humidity 69    
Maximum Humidity 88    
Minimum Humidity 42    
Precipitation  
Precipitation 0.00 in - - ()
Sea Level Pressure  
Sea Level Pressure 30.52 in    
Wind  
Wind Speed 1 mph (South)    
Max Wind Speed 7 mph    
Max Gust Speed -    
Visibility 10 miles    
Events Snow    
Averages and records for this station are not official NWS values.
T = Trace of Precipitation, MM = Missing Value Source: NWS Daily Summary

Daily Weather History Graph

Daily Weather History Graph

Search for Another Location

Airport or City:

Trip Planner

Search our weather history database for the weather conditions in past years. The results will help you decide how hot, cold, wet, or windy it might be!

Date:

Astronomy

Jan. 27, 2013 Rise Set
Actual Time 7:21 AM EST 5:07 PM EST
Civil Twilight 6:51 AM EST 5:38 PM EST
Nautical Twilight 6:16 AM EST 6:12 PM EST
Astronomical Twilight 5:43 AM EST 6:46 PM EST
Moon 6:02 PM EST (1/27) 7:11 AM EST (1/27)
Length of Visible Light 10h 46m
Length of Day
9h 45m
Full, 100% of the Moon is Illuminated
Jan 27
Full
Feb 3
Last Quarter
Feb 10
New
Feb 17
First Quarter
Feb 25
Full

Hourly Weather History & Observations

Time (EST) Temp. Windchill Dew Point Humidity Pressure Visibility Wind Dir Wind Speed Gust Speed Precip Events Conditions
12:03 AM 1.0 °F - -2.9 °F 83% 30.38 in 6.0 mi Calm Calm - 0.00 in Snow Light Snow
12:53 AM 1.9 °F - -0.9 °F 88% 30.42 in 7.0 mi Calm Calm - 0.00 in Snow Light Snow
1:19 AM 1.9 °F - -0.9 °F 88% 30.39 in 10.0 mi Calm Calm - 0.00 in   Overcast
1:53 AM 1.9 °F - -2.0 °F 83% 30.44 in 5.0 mi Calm Calm - 0.00 in   Partly Cloudy
2:53 AM -2.0 °F - -6.0 °F 83% 30.46 in 10.0 mi Calm Calm - N/A   Clear
3:53 AM -0.9 °F - -5.1 °F 83% 30.48 in 10.0 mi Calm Calm - N/A   Clear
4:53 AM -2.9 °F - -7.1 °F 82% 30.49 in 10.0 mi Calm Calm - N/A   Clear
5:53 AM -6.0 °F - -11.0 °F 79% 30.51 in 10.0 mi Calm Calm - N/A   Scattered Clouds
6:53 AM -6.0 °F - -11.0 °F 79% 30.54 in 10.0 mi Calm Calm - N/A   Clear
7:53 AM -6.0 °F - -9.9 °F 83% 30.57 in 10.0 mi Calm Calm - N/A   Clear
8:53 AM -4.0 °F -12.4 °F -8.0 °F 83% 30.58 in 10.0 mi South 3.5 mph - N/A   Clear
9:53 AM 5.0 °F - -0.0 °F 80% 30.60 in 10.0 mi Calm Calm - N/A   Clear
10:53 AM 12.0 °F - 3.9 °F 70% 30.60 in 10.0 mi Calm Calm - N/A   Clear
11:53 AM 14.0 °F - 1.9 °F 59% 30.58 in 10.0 mi Calm Calm - 0.00 in   Clear
12:53 PM 18.0 °F - 1.0 °F 48% 30.55 in 10.0 mi Calm Calm - 0.00 in   Clear
1:53 PM 19.9 °F - -0.0 °F 42% 30.53 in 10.0 mi Calm Calm - 0.00 in   Clear
2:53 PM 19.9 °F 13.4 °F 3.0 °F 48% 30.55 in 10.0 mi WSW 4.6 mph - N/A   Clear
3:53 PM 19.9 °F 12.1 °F 3.0 °F 48% 30.55 in 10.0 mi West 5.8 mph - N/A   Clear
4:53 PM 19.9 °F 14.9 °F 3.0 °F 48% 30.56 in 10.0 mi West 3.5 mph - N/A   Clear
5:53 PM 19.0 °F - 3.9 °F 52% 30.56 in 10.0 mi Calm Calm - N/A   Clear
6:53 PM 12.9 °F - 3.9 °F 67% 30.55 in 10.0 mi Calm Calm - N/A   Partly Cloudy
7:53 PM 16.0 °F 10.4 °F 7.0 °F 68% 30.53 in 10.0 mi ESE 3.5 mph - N/A   Overcast
8:53 PM 17.1 °F - 5.0 °F 59% 30.52 in 10.0 mi Calm Calm - N/A   Overcast
9:53 PM 17.1 °F 11.7 °F 7.0 °F 65% 30.51 in 10.0 mi ESE 3.5 mph - N/A   Overcast
10:53 PM 17.1 °F - 7.0 °F 65% 30.49 in 10.0 mi Calm Calm - N/A   Overcast
11:53 PM 18.0 °F 8.7 °F 6.1 °F 60% 30.49 in 10.0 mi East 6.9 mph - N/A   Overcast